Location: Greenwich
(51.4790°N, 0.0090°E)
Time: 19:13:21
(UTC+01:00)

Tiros 1 - Visible Passes

Search period start: 23 April 2024 00:00
Search period end: 03 May 2024 00:00
Orbit: 625 x 657 km, 48.4° (Epoch: 22 April)

Date Brightness Start Highest point End Pass type
(mag) Time Alt. Az. Time Alt. Az. Time Alt. Az.
23 Apr 7.6 02:24:42 46° SE 02:24:42 46° SE 02:28:14 10° E visible
23 Apr 7.3 04:02:14 18° W 04:05:29 49° SSW 04:09:55 10° ESE visible
24 Apr 9.5 01:10:04 12° E 01:10:04 12° E 01:10:23 10° E visible
24 Apr 7.0 02:47:36 59° S 02:47:43 59° S 02:52:15 10° ESE visible
24 Apr 7.7 04:25:09 10° W 04:29:23 36° SSW 04:33:35 10° SE visible
25 Apr 9.0 01:33:06 19° E 01:33:06 19° E 01:34:26 10° E visible
25 Apr 7.2 03:10:38 42° SW 03:11:42 51° SSW 03:16:10 10° ESE visible
25 Apr 8.2 04:49:28 10° W 04:53:09 24° SSW 04:56:48 10° SSE visible
26 Apr 8.5 01:56:21 26° ESE 01:56:21 26° ESE 01:58:27 10° ESE visible
26 Apr 7.5 03:33:55 28° WSW 03:35:36 38° SSW 03:39:52 10° SE visible
27 Apr 8.3 02:20:03 28° SE 02:20:03 28° SE 02:22:21 10° ESE visible
27 Apr 8.0 03:57:39 21° WSW 03:59:23 26° SSW 04:03:10 10° SSE visible
27 Apr 8.6 21:34:12 10° S 21:37:04 16° SE 21:37:24 16° SE visible
27 Apr 9.0 23:13:55 10° SW 23:15:07 17° SW 23:15:07 17° SW visible
28 Apr 8.7 02:44:30 20° SE 02:44:30 20° SE 02:46:07 10° SE visible
28 Apr 8.6 04:22:09 15° SW 04:23:01 16° SW 04:25:43 10° S visible
28 Apr 8.0 21:56:48 10° SSW 22:00:43 26° SSE 22:02:43 20° ESE visible
28 Apr 8.1 23:37:40 10° WSW 23:40:22 32° SW 23:40:22 32° SW visible
29 Apr 7.5 22:20:07 10° SW 22:24:29 39° SSE 22:27:04 21° ESE visible
30 Apr 7.9 00:01:35 10° WSW 00:04:39 38° WSW 00:04:39 38° WSW visible
30 Apr 8.2 21:03:06 10° SSW 21:06:53 24° SSE 21:10:39 10° E visible
30 Apr 7.2 22:43:48 10° WSW 22:48:22 52° SSE 22:50:40 27° ESE visible
01 May 8.2 00:25:34 10° W 00:28:14 32° WSW 00:28:14 32° WSW visible
01 May 7.7 21:26:18 10° SW 21:30:37 37° SSE 21:34:55 10° E visible
01 May 7.1 23:07:41 10° WSW 23:12:18 60° S 23:13:53 38° ESE visible
02 May 8.7 00:49:36 10° W 00:51:26 22° W 00:51:26 22° W visible
02 May 7.3 21:49:55 10° WSW 21:54:28 50° SSE 21:59:00 10° E visible
02 May 7.1 23:31:39 10° W 23:36:16 58° S 23:36:52 53° SSE visible
